Location: Perryvale
(54.4667°N, 113.3833°W)
Time: 05:12:21
(UTC+00:00)

Vanguard 3 - Pass Details

Date: 25 May 2024
Orbit: 508 x 3216 km, 33.3° (Epoch: 20 May)

Event Time Altitude Azimuth Distance (km) Brightness Sun altitude
Rises 07:40:50 0° 262° (W) 5,787 11.4 -14.4°
Reaches altitude 10° 07:46:52 10° 242° (WSW) 5,284 11.0 -14.4°
Maximum altitude 07:54:30 15° 213° (SSW) 5,313 10.7 -14.3°
Enters shadow 07:57:47 14° 202° (SSW) 5,530 10.8 -14.2°
